Location: Newark
(56.0692°N, 115.8617°E)
Time: 08:02:41
(UTC+00:00)

Vanguard 2 Rocket - All Passes

Search period start: 26 May 2020 00:00
Search period end: 05 June 2020 00:00
Orbit: 555 x 3325 km, 32.9° (Epoch: 24 May)

Date Brightness Start Highest point End Pass type
(mag) Time Alt. Az. Time Alt. Az. Time Alt. Az.
26 May - 07:44:08 10° S 07:50:38 17° SE 07:58:55 10° ESE daylight
26 May - 09:52:48 10° SW 10:03:08 28° SSE 10:17:12 10° ESE daylight
26 May - 12:04:58 10° WSW 12:17:05 28° SSW 12:32:05 10° SE daylight
26 May - 14:20:52 10° WSW 14:31:01 18° SW 14:41:59 10° S visible
27 May - 06:49:19 10° SSE 06:51:26 11° SE 06:53:43 10° SE daylight
27 May - 08:54:20 10° SSW 09:03:06 24° SSE 09:15:11 10° ESE daylight
27 May - 11:05:23 10° SW 11:16:32 29° S 11:31:14 10° SE daylight
27 May - 13:19:30 10° WSW 13:30:35 21° SSW 13:43:20 10° SSE visible
28 May - 07:56:29 10° SSW 08:03:27 19° SSE 08:12:45 10° ESE daylight
28 May - 10:06:16 10° SW 10:16:12 28° S 10:29:53 10° SE daylight
28 May - 12:19:04 10° WSW 12:30:04 24° SSW 12:43:38 10° SSE daylight
28 May - 14:37:53 10° WSW 14:43:40 12° SW 14:49:45 10° SSW visible
29 May - 06:59:43 10° S 07:04:09 14° SE 07:09:32 10° ESE daylight
29 May - 09:07:35 10° SW 09:16:09 25° SSE 09:28:10 10° ESE daylight
29 May - 11:19:17 10° WSW 11:29:38 25° S 11:43:12 10° SE daylight
29 May - 13:34:51 10° WSW 13:43:25 16° SSW 13:53:04 10° S visible
30 May - 08:09:25 10° SSW 08:16:26 21° SSE 08:26:06 10° ESE daylight
30 May - 10:20:01 10° SW 10:29:21 26° S 10:42:11 10° SE daylight
30 May - 12:33:46 10° WSW 12:43:05 19° SSW 12:54:19 10° SSE daylight
31 May - 07:11:58 10° S 07:17:04 16° SSE 07:23:37 10° ESE daylight
31 May - 09:21:10 10° SW 09:29:20 24° S 09:40:46 10° SE daylight
31 May - 11:33:37 10° WSW 11:42:46 21° SSW 11:54:30 10° SSE daylight
31 May - 13:54:08 10° SW 13:56:14 10° SW 13:58:25 10° SSW visible
01 Jun - 06:17:12 10° SSE 06:18:00 10° SE 06:18:50 10° SE daylight
01 Jun - 08:22:47 10° SSW 08:29:36 21° SSE 08:39:04 10° SE daylight
01 Jun - 10:34:06 10° SW 10:42:35 22° S 10:53:59 10° SSE daylight
01 Jun - 12:49:46 10° SW 12:56:06 14° SSW 13:03:19 10° S daylight
02 Jun - 07:24:56 10° SSW 07:30:10 17° SSE 07:37:04 10° SE daylight
02 Jun - 09:35:05 10° SW 09:42:36 22° S 09:52:59 10° SE daylight
02 Jun - 11:48:43 10° SW 11:55:57 16° SSW 12:04:45 10° S daylight
03 Jun - 06:28:11 10° S 06:31:02 12° SSE 06:34:21 10° SE daylight
03 Jun - 08:36:30 10° SW 08:42:53 20° S 08:51:39 10° SE daylight
03 Jun - 10:48:45 10° SW 10:55:52 18° SSW 11:05:01 10° SSE daylight
04 Jun - 07:38:24 10° SSW 07:43:25 17° SSE 07:50:05 10° SE daylight
04 Jun - 09:49:26 10° SW 09:55:58 18° S 10:04:36 10° SSE daylight
04 Jun - 12:06:39 10° SW 12:09:08 11° SSW 12:11:48 10° SSW daylight
